Location: Ku?niki
(51.4449°N, 17.8974°E)
Time: 11:37:04
(UTC+00:00)

Lacrosse 4 Rocket - Pass Details

Date: 18 September 2020
Orbit: 543 x 616 km, 68.0° (Epoch: 31 October)

Event Time Altitude Azimuth Distance (km) Brightness Sun altitude
Rises 20:58:45 0° 322° (NW) 2,717 5.9 -32.8°
Reaches altitude 10° 21:00:57 10° 320° (NW) 1,823 4.8 -32.9°
Enters shadow 21:02:09 19° 316° (NW) 1,352 3.9 -33.0°
